Overview Statistics Trail Chart Weather Telemetry Raw packets
 

This is the latest recevied weather packets stored in our database for station/object KO4ZGL-13. If no packets are shown the sender has not sent any weather packets the latest 10 day(s).

<< 71 72 73 74 75 76 77 >>
Time Temp. Humidity Pressure Rain* Wind** Luminosity Snow
1788137180 25.56° C 98% 1020.1 hPa 0 mm - 0 W/m² -
1788136876 25.56° C 98% 1019.7 hPa 0 mm - 0 W/m² -
1788136571 25.56° C 98% 1019.6 hPa 0 mm - 0 W/m² -
1788136267 25.56° C 98% 1019.8 hPa 0 mm - 0 W/m² -
1788135965 25.56° C 98% 1019.6 hPa 0 mm - 0 W/m² -
1788135661 26.11° C 97% 1019.5 hPa 0 mm - 0 W/m² -
1788135356 26.11° C 97% 1019.4 hPa 0 mm - 0 W/m² -
1788135052 26.11° C 97% 1019.7 hPa 0 mm - 0 W/m² -
1788134748 26.11° C 97% 1019.6 hPa 0 mm - 0 W/m² -
1788134442 26.11° C 97% 1019.3 hPa 0 mm - 0 W/m² -
1788134141 26.11° C 97% 1019.4 hPa 0 mm - 0 W/m² -
1788133837 26.67° C 97% 1019.3 hPa 0 mm - 1 W/m² -
1788133531 26.67° C 97% 1019.5 hPa 0 mm - 1 W/m² -
1788133227 26.67° C 97% 1019.2 hPa 0 mm - 3 W/m² -
1788132922 26.67° C 96% 1019.3 hPa 0 mm - 5 W/m² -
1788132618 26.67° C 96% 1019.5 hPa 0 mm - 7 W/m² -
1788132314 27.22° C 96% 1019.5 hPa 0 mm - 10 W/m² -
1788132010 26.67° C 96% 1019.3 hPa 0 mm - 14 W/m² -
1788131705 27.22° C 95% 1019.2 hPa 0 mm - 20 W/m² -
1788131404 27.22° C 95% 1019.4 hPa 0 mm - 23 W/m² -
1788131100 27.22° C 95% 1019.6 hPa 0 mm - 22 W/m² -
1788130798 27.22° C 95% 1019.4 hPa 0 mm - 22 W/m² -
1788130495 27.78° C 94% 1019.3 hPa 0 mm - 25 W/m² -
1788130194 27.78° C 93% 1019.3 hPa 0 mm - 29 W/m² -
1788129893 27.78° C 93% 1019.2 hPa 0 mm - 31 W/m² -

* Rain latest hour (hover to see other rain measurements)
** Current wind speed in m/s (hover to see current wind gust speed)